Location: Chmeli�t?
(49.8978°N, 15.0526°E)
Time: 08:16:02
(UTC+00:00)

Cosmos 2074 Rocket - Pass Details

Date: 03 October 2020
Orbit: 967 x 987 km, 82.9° (Epoch: 30 October)

Event Time Altitude Azimuth Distance (km) Brightness Sun altitude
Rises 19:59:01 0° 358° (N) 3,696 7.5 -32.2°
Reaches altitude 10° 20:02:28 10° 17° (NNE) 2,740 6.5 -32.6°
Enters shadow 20:04:28 16° 34° (NE) 2,354 6.0 -32.9°
